CYAM

Sault Ste Marie Airport

Sault Ste Marie, Ontario, Canada
Issued Wind Visibility Temperature Dew Point Humidity Barometer
Sep-24
20:00 UTC
190°
7 KTS
15 miles 31° C
88° F
20° C
68° F
52% 30.04" Hg
1017.2 hPa
VFR
Sep-24
19:00 UTC
200°
6 KTS
15 miles 31° C
88° F
20° C
68° F
52% 30.05" Hg
1017.5 hPa
VFR
Sep-24
18:00 UTC
190°
4 KTS
15 miles 31° C
88° F
20° C
68° F
52% 30.06" Hg
1018.1 hPa
VFR
Sep-24
17:00 UTC
150°
4 KTS
15 miles 29° C
84° F
20° C
68° F
58% 30.08" Hg
1018.6 hPa
VFR
Sep-24
16:00 UTC
120°
4 KTS
15 miles 27° C
81° F
20° C
68° F
66% 30.09" Hg
1018.9 hPa
VFR
Sep-24
15:00 UTC
090°
4 KTS
15 miles 25° C
77° F
20° C
68° F
74% 30.09" Hg
1019 hPa
VFR
Sep-24
14:00 UTC
080°
4 KTS
12 miles 21° C
70° F
19° C
66° F
88% 30.09" Hg
1019.3 hPa
VFR
Sep-24
13:00 UTC
080°
4 KTS
8 miles 19° C
66° F
18° C
64° F
94% 30.1" Hg
1019.5 hPa
VFR
Sep-24
12:00 UTC
090°
4 KTS
8 miles 17° C
63° F
17° C
63° F
100% 30.1" Hg
1019.4 hPa
VFR
Sep-24
11:00 UTC
060°
4 KTS
6 miles 17° C
63° F
17° C
63° F
100% 30.1" Hg
1019.3 hPa
VFR
Sep-24
10:00 UTC
Varies @2 KTS 15 miles 17° C
63° F
17° C
63° F
100% 30.09" Hg
1019 hPa
VFR
Sep-24
09:00 UTC
090°
3 KTS
15 miles 17° C
63° F
17° C
63° F
100% 30.08" Hg
1018.8 hPa
VFR
Sep-24
08:00 UTC
080°
3 KTS
15 miles 17° C
63° F
17° C
63° F
100% 30.08" Hg
1018.6 hPa
VFR
Sep-24
07:00 UTC
080°
5 KTS
15 miles 18° C
64° F
18° C
64° F
100% 30.07" Hg
1018.3 hPa
VFR
Sep-24
06:00 UTC
090°
2 KTS
15 miles 18° C
64° F
17° C
63° F
94% 30.06" Hg
1018.1 hPa
VFR
Sep-24
05:00 UTC
15 miles 17° C
63° F
16° C
61° F
94% 30.06" Hg
1017.9 hPa
VFR
Sep-24
04:00 UTC
190°
4 KTS
15 miles 19° C
66° F
18° C
64° F
94% 30.06" Hg
1018 hPa
VFR
Sep-24
03:00 UTC
15 miles 18° C
64° F
18° C
64° F
100% 30.05" Hg
1017.8 hPa
VFR
Sep-24
02:00 UTC
060°
3 KTS
15 miles 19° C
66° F
18° C
64° F
94% 30.05" Hg
1017.7 hPa
VFR
Sep-24
01:00 UTC
170°
3 KTS
15 miles 19° C
66° F
18° C
64° F
94% 30.04" Hg
1017.3 hPa
VFR
Sep-24
00:00 UTC
200°
3 KTS
15 miles 24° C
75° F
19° C
66° F
74% 30.03" Hg
1016.9 hPa
VFR
Sep-23
23:00 UTC
210°
4 KTS
15 miles 27° C
81° F
19° C
66° F
62% 30.02" Hg
1016.6 hPa
VFR
Sep-23
22:00 UTC
210°
6 KTS
15 miles 29° C
84° F
20° C
68° F
58% 30.01" Hg
1016.3 hPa
VFR